• In Belarus
  • List of Countries
  • For 7 days
  • Water Temperature
  • Weather Map
  • Weather Widgets
  • user-avatar
    Login

    Hourly Weather Wavre

    Today, 28 February, Friday

    Time Temperature Precipitation Wind Pressure Humidity
    00:00 -1°C° 0 mm 4 mps 754 mmHg 82%
    01:00 -1°C° 0 mm 4 mps 755 mmHg 84%
    02:00 -1°C° 0 mm 4 mps 755 mmHg 86%
    03:00 -1°C° 0 mm 4 mps 755 mmHg 88%
    04:00 -1°C° 0 mm 4 mps 756 mmHg 88%
    05:00 -1°C° 0 mm 3 mps 756 mmHg 87%
    06:00 -1°C° 0 mm 3 mps 757 mmHg 89%
    07:00 -1°C° 0 mm 4 mps 757 mmHg 85%
    08:00 0°C° 0 mm 4 mps 757 mmHg 81%
    09:00 +1°C° 0 mm 5 mps 757 mmHg 77%
    10:00 +3°C° 0 mm 6 mps 756 mmHg 74%
    11:00 +4°C° 0 mm 7 mps 756 mmHg 71%
    12:00 +5°C° 0 mm 7 mps 755 mmHg 66%
    13:00 +4°C° 0 mm 8 mps 754 mmHg 69%
    14:00 +4°C° 0 mm 8 mps 753 mmHg 71%
    15:00 +3°C° 0 mm 9 mps 752 mmHg 74%
    16:00 +3°C° 0.5 mm 9 mps 751 mmHg 77%
    17:00 +2°C° 0.5 mm 9 mps 750 mmHg 80%
    18:00 +2°C° 0.5 mm 10 mps 749 mmHg 82%
    19:00 +3°C° 0.5 mm 9 mps 748 mmHg 85%
    20:00 +5°C° 0.5 mm 9 mps 748 mmHg 87%
    21:00 +6°C° 0.5 mm 9 mps 747 mmHg 89%
    22:00 +6°C° 0 mm 8 mps 747 mmHg 89%
    23:00 +7°C° 0 mm 8 mps 746 mmHg 89%

    Tomorrow, 29 February, Saturday

    Time Temperature Precipitation Wind Pressure Humidity
    00:00 +9°C° 0 mm 8 mps 746 mmHg 89%
    01:00 +9°C° 0 mm 8 mps 745 mmHg 87%
    02:00 +7°C° 0 mm 8 mps 744 mmHg 85%
    03:00 +7°C° 0 mm 9 mps 743 mmHg 84%
    04:00 +7°C° 0 mm 8 mps 743 mmHg 83%
    05:00 +6°C° 0 mm 8 mps 742 mmHg 82%
    06:00 +6°C° 0 mm 8 mps 741 mmHg 81%
    07:00 +6°C° 0 mm 9 mps 740 mmHg 79%
    08:00 +7°C° 0 mm 10 mps 738 mmHg 76%
    09:00 +8°C° 0 mm 11 mps 737 mmHg 74%
    10:00 +8°C° 0.7 mm 11 mps 737 mmHg 77%
    11:00 +8°C° 0.7 mm 12 mps 737 mmHg 80%
    12:00 +8°C° 0.7 mm 12 mps 737 mmHg 84%
    13:00 +7°C° 0.4 mm 11 mps 737 mmHg 76%
    14:00 +7°C° 0.4 mm 10 mps 738 mmHg 68%
    15:00 +6°C° 0.4 mm 9 mps 738 mmHg 61%
    16:00 +5°C° 0 mm 8 mps 739 mmHg 64%
    17:00 +4°C° 0 mm 7 mps 739 mmHg 67%
    18:00 +3°C° 0 mm 6 mps 740 mmHg 70%
    19:00 +3°C° 0.1 mm 7 mps 740 mmHg 74%
    20:00 +2°C° 0.1 mm 8 mps 740 mmHg 77%
    21:00 +2°C° 0.1 mm 8 mps 740 mmHg 81%
    22:00 +2°C° 0.2 mm 8 mps 740 mmHg 81%
    23:00 +2°C° 0.2 mm 8 mps 740 mmHg 81%

    Day after tomorrow, 1 March, Sunday

    Time Temperature Precipitation Wind Pressure Humidity
    00:00 +1°C° 0.2 mm 8 mps 740 mmHg 80%
    01:00 +1°C° 0 mm 8 mps 740 mmHg 80%
    02:00 +1°C° 0 mm 9 mps 740 mmHg 79%
    03:00 +1°C° 0 mm 9 mps 740 mmHg 78%
    04:00 +1°C° 0.3 mm 9 mps 740 mmHg 81%
    05:00 +1°C° 0.3 mm 9 mps 740 mmHg 83%
    06:00 +1°C° 0.3 mm 9 mps 740 mmHg 86%
    07:00 +1°C° 0.4 mm 10 mps 740 mmHg 84%
    08:00 +1°C° 0.4 mm 10 mps 740 mmHg 82%
    09:00 +1°C° 0.4 mm 10 mps 740 mmHg 81%
    10:00 +2°C° 0.1 mm 10 mps 740 mmHg 75%
    11:00 +5°C° 0.1 mm 10 mps 740 mmHg 69%
    12:00 +6°C° 0.1 mm 10 mps 740 mmHg 64%
    13:00 +6°C° 0.2 mm 10 mps 739 mmHg 65%
    14:00 +6°C° 0.2 mm 9 mps 739 mmHg 67%
    15:00 +6°C° 0.2 mm 8 mps 738 mmHg 68%
    16:00 +5°C° 0.2 mm 7 mps 737 mmHg 75%
    17:00 +6°C° 0.2 mm 5 mps 737 mmHg 81%
    18:00 +5°C° 0.2 mm 4 mps 736 mmHg 87%
    19:00 +5°C° 3.1 mm 4 mps 735 mmHg 89%
    20:00 +4°C° 3.1 mm 4 mps 735 mmHg 92%
    21:00 +4°C° 3.1 mm 4 mps 734 mmHg 94%
    22:00 +3°C° 1 mm 5 mps 735 mmHg 89%
    23:00 +3°C° 1 mm 5 mps 735 mmHg 84%

    2 March, Monday

    Time Temperature Precipitation Wind Pressure Humidity
    00:00 +3°C° 1 mm 6 mps 736 mmHg 79%
    01:00 +2°C° 0 mm 6 mps 736 mmHg 82%
    02:00 +2°C° 0 mm 7 mps 737 mmHg 86%
    03:00 0°C° 0 mm 7 mps 737 mmHg 89%
    04:00 0°C° 0 mm 7 mps 737 mmHg 89%
    05:00 +2°C° 0 mm 6 mps 737 mmHg 89%
    06:00 +2°C° 0 mm 6 mps 737 mmHg 89%
    07:00 +2°C° 0 mm 6 mps 737 mmHg 88%
    08:00 +3°C° 0 mm 6 mps 737 mmHg 86%
    09:00 +3°C° 0 mm 6 mps 737 mmHg 84%
    10:00 +5°C° 0.1 mm 5 mps 737 mmHg 79%
    11:00 +6°C° 0.1 mm 4 mps 737 mmHg 74%
    12:00 +7°C° 0.1 mm 4 mps 737 mmHg 70%
    13:00 +7°C° 0.1 mm 4 mps 737 mmHg 67%
    14:00 +8°C° 0.1 mm 3 mps 737 mmHg 65%
    15:00 +8°C° 0.1 mm 3 mps 737 mmHg 63%
    16:00 +7°C° 0.1 mm 3 mps 738 mmHg 67%
    17:00 +6°C° 0.1 mm 2 mps 738 mmHg 71%
    18:00 +5°C° 0.1 mm 2 mps 739 mmHg 75%
    19:00 +4°C° 0 mm 2 mps 740 mmHg 76%
    20:00 +4°C° 0 mm 2 mps 740 mmHg 76%
    21:00 +4°C° 0 mm 1 mps 741 mmHg 76%
    22:00 +3°C° 0 mm 2 mps 742 mmHg 79%
    23:00 +2°C° 0 mm 2 mps 743 mmHg 81%

    3 March, Tuesday

    Time Temperature Precipitation Wind Pressure Humidity
    00:00 +1°C° 0 mm 3 mps 743 mmHg 83%
    01:00 +1°C° 0 mm 3 mps 744 mmHg 85%
    02:00 +1°C° 0 mm 3 mps 744 mmHg 86%
    03:00 0°C° 0 mm 3 mps 744 mmHg 87%
    04:00 0°C° 0 mm 3 mps 745 mmHg 88%
    05:00 0°C° 0 mm 3 mps 746 mmHg 89%
    06:00 0°C° 0 mm 3 mps 746 mmHg 89%
    07:00 0°C° 0 mm 4 mps 747 mmHg 84%
    08:00 +1°C° 0 mm 5 mps 748 mmHg 78%
    09:00 +3°C° 0 mm 5 mps 748 mmHg 73%
    10:00 +5°C° 0 mm 5 mps 748 mmHg 67%
    11:00 +5°C° 0 mm 5 mps 749 mmHg 61%
    12:00 +5°C° 0 mm 6 mps 749 mmHg 56%
    13:00 +6°C° 0.1 mm 5 mps 749 mmHg 57%
    14:00 +6°C° 0.1 mm 5 mps 749 mmHg 59%
    15:00 +6°C° 0.1 mm 5 mps 749 mmHg 60%
    16:00 +5°C° 0.1 mm 4 mps 749 mmHg 66%
    17:00 +4°C° 0.1 mm 4 mps 749 mmHg 72%
    18:00 +3°C° 0.1 mm 3 mps 749 mmHg 77%
    19:00 +3°C° 0 mm 3 mps 749 mmHg 79%
    20:00 +2°C° 0 mm 3 mps 749 mmHg 81%
    21:00 +1°C° 0 mm 3 mps 749 mmHg 83%
    22:00 +1°C° 0 mm 3 mps 749 mmHg 83%
    23:00 +1°C° 0 mm 3 mps 748 mmHg 84%

    4 March, Wednesday

    Time Temperature Precipitation Wind Pressure Humidity
    00:00 +1°C° 0 mm 3 mps 748 mmHg 85%
    01:00 +1°C° 0 mm 3 mps 747 mmHg 85%
    02:00 +1°C° 0 mm 3 mps 747 mmHg 86%
    03:00 +1°C° 0 mm 3 mps 746 mmHg 86%
    04:00 +2°C° 0.1 mm 3 mps 746 mmHg 87%
    05:00 +1°C° 0.1 mm 4 mps 746 mmHg 88%
    06:00 +1°C° 0.1 mm 4 mps 745 mmHg 89%
    07:00 +1°C° 0.4 mm 4 mps 745 mmHg 91%
    08:00 +1°C° 0.4 mm 5 mps 745 mmHg 92%
    09:00 +1°C° 0.4 mm 5 mps 745 mmHg 94%
    10:00 +1°C° 0.2 mm 5 mps 745 mmHg 93%
    11:00 +3°C° 0.2 mm 4 mps 746 mmHg 92%
    12:00 +3°C° 0.2 mm 4 mps 746 mmHg 92%
    13:00 +3°C° 0.5 mm 3 mps 746 mmHg 93%
    14:00 +3°C° 0.5 mm 3 mps 746 mmHg 94%
    15:00 +4°C° 0.5 mm 2 mps 747 mmHg 96%
    16:00 +4°C° 0.1 mm 2 mps 747 mmHg 95%
    17:00 +3°C° 0.1 mm 3 mps 748 mmHg 95%
    18:00 +3°C° 0.1 mm 3 mps 749 mmHg 95%
    19:00 +3°C° 0.1 mm 3 mps 750 mmHg 94%
    20:00 +4°C° 0.1 mm 2 mps 750 mmHg 94%
    21:00 +3°C° 0.1 mm 2 mps 751 mmHg 93%
    22:00 +3°C° 0 mm 2 mps 751 mmHg 93%
    23:00 +2°C° 0 mm 2 mps 751 mmHg 93%
    Show more